Location: Acheville
(50.3840°N, 2.8827°E)
Time: 11:00:53
(UTC+00:00)

In-Cosmos 22 Rocket - Pass Details

Date: 24 October 2021
Orbit: 790 x 888 km, 81.2° (Epoch: 30 November)

Event Time Altitude Azimuth Distance (km) Brightness Sun altitude
Rises 18:30:05 0° 347° (NNW) 3,313 7.5 -18.4°
Reaches altitude 10° 18:32:28 10° 346° (NNW) 2,373 6.7 -18.8°
Maximum altitude 18:37:48 84° 261° (W) 802 4.1 -19.6°
Drops below altitude 10° 18:43:07 10° 173° (S) 2,355 6.4 -20.4°
Sets 18:45:29 0° 172° (S) 3,287 7.1 -20.8°
